STARLINK-34002, 63856

Orbit data source: Space-Track

STARLINK-34002, 63856 is a payload satellite owned by SpaceX/Seattle (US) in LEO that was launched on Wed, 07 May 2025 UTC via an FALCON 9 launch vehicle from the Air Force Eastern Test Range (AFETR). Payload-class satellites include a variety of spacecraft equipped with specific instruments for various scientific and technological missions. These include communications satellites like Starlink; space stations such as the ISS; scientific satellites like the Hubble; Earth observation satellites from companies like Planet Labs, Umbra, and HawkEye 360; GPS; miniature CubeSats for education and research; and military/defense satellites.

Loading next visibility...
Identifier
63856, 2025-093W
Orbit
LEO
Country
Flag of USUS
Related business
Manufacturer
SpaceX/Seattle
Mission
Operational Commercial Communications
Bus & Motor
STARLINK V2MO, Unknown motor
Mass
575 kg wet, ~530 kg dry
Launch date (UTC)
2025-05-07 (7 months ago)
Launch vehicle
FALCON 9
Launch site
Air Force Eastern Test Range (AFETR)
Object type
Payload
Rocket body
Debris
Shape & HBR
Box + 2 Pan, 17.7 m
Radar Cross Section
36.964 m², Large (>1 m²)

Expand to show TLE details & history
Last TLE update: 16 hours ago

TLE from 16 hours ago
0 STARLINK-34002
1 63856U 25093W   25348.96288942  .00012650  00000-0  46855-3 0  9992
2 63856  42.9991 196.4344 0001509 266.9924  93.0755 15.27570915 34792
Epoch: 2025-12-14T23:06Z
TLE epoch observation values (Epoch: 2025-12-14T23:06:33.645Z)
Latitude
-0.00003°
Longitude
125.9259°
Altitude
482.907 km
Speed
7.626 km/s
True Right ascension
13h 05m 44s
True Declination
0° 00' 00"
Sunlit
Object was in daylight at epoch
Visualization orbit readout
Latitude
Unknown
Longitude
Unknown
Altitude
Unknown
Speed
Unknown
Apparent Right ascension
Unknown
Apparent Declination
Unknown
Sunlit
N/A
Visualization observer readout
Local Sidereal Time
13:22:47
Azimuth
Unknown
Elevation
Unknown
Doppler factor
Unknown
Orbital elements
Apogee altitude
486.057 km
Perigee altitude
483.986 km
Semi-major axis
6,863.159 km
Eccentricity
0.00015
Inclination
42.9991°
RAAN
196.4344°
Arg. of periapsis
266.9924°
True anomaly
93.09277°
Mean anomaly
93.0755°
Eccentric anomaly
93.08413°
Mean motion
3.81731 °/min
Orbital period
94.31 mins
BSTAR
0.00046855
Loading maneuver chart data...
Computing Atmospheric mass density...
Loading historical data...
Loading historical data...
Loading historical data...
Loading historical data...
Loading historical data...
Loading historical data...
Loading historical data...

Documentation

Showing up to 5 results
|